Location: Arthurs Seat
(13.1500°N, 59.6000°W)
Time: 11:10:46
(UTC+00:00)

Cosmos 220 Rocket - Pass Details

Date: 25 August 2019
Orbit: 576 x 616 km, 74.0° (Epoch: 20 October)

Event Time Altitude Azimuth Distance (km) Brightness Sun altitude
Rises 22:38:20 0° 352° (N) 2,786 7.7 -6.6°
Reaches altitude 10° 22:40:34 10° 356° (N) 1,884 6.8 -7.2°
Maximum altitude 22:44:42 61° 76° (ENE) 653 3.9 -8.1°
Drops below altitude 10° 22:48:49 10° 157° (SSE) 1,877 6.2 -9.1°
Sets 22:51:03 0° 161° (SSE) 2,775 7.1 -9.7°
